Location: Hermaringen
(48.5952°N, 10.2585°E)
Time: 06:23:12
(UTC+00:00)

Resurs 01 Rocket - Pass Details

Date: 18 November 2025
Orbit: 626 x 636 km, 97.7° (Epoch: 06 December)

Event Time Altitude Azimuth Distance (km) Brightness Sun altitude
Exits shadow 19:07:32 14° 326° (NW) 1,754 4.3 -34.7°
Drops below altitude 10° 19:08:19 10° 331° (NNW) 2,035 4.6 -34.8°
Sets 19:10:40 0° 340° (NNW) 2,947 5.4 -35.2°
